Location: Canyon Rim
(40.8777°N, 111.8641°W)
Time: 19:33:38
(UTC+00:00)

Envisat - Pass Details

Date: 26 April 2021
Orbit: 764 x 766 km, 98.1° (Epoch: 06 May)

Event Time Altitude Azimuth Distance (km) Brightness Sun altitude
Rises 11:34:11 0° 35° (NE) 3,237 7.5 -10.8°
Reaches altitude 10° 11:38:00 10° 64° (ENE) 2,304 7.1 -10.2°
Maximum altitude 11:40:06 12° 89° (E) 2,131 6.4 -9.8°
Drops below altitude 10° 11:42:12 10° 114° (ESE) 2,297 6.0 -9.5°
Sets 11:45:58 0° 143° (SE) 3,217 6.4 -8.8°
